Tracking 31027 objects as of 19-Jul-2025
HD Live streaming from Space Station
objects crossing your sky now

SJ-11-02

Track SJ-11-02 now!
10-day predictions
SJ-11-02 is classified as:


NORAD ID: 37765
Int'l Code: 2011-039A
Perigee: 680.9 km
Apogee: 694.4 km
Inclination: 98.3 °
Period: 98.4 minutes
Semi major axis: 7058 km
RCS: 2.5354 m2 (large)
Launch date: July 29, 2011
Source: People's Republic of China (PRC)
Launch site: Jiuquan Satellite Launch Center, China (JSC)

SJ-11-02 is a satellite developed by China Space Co., Ltd. under the China Aerospace Science and Technology Corporation, used to conduct scientific experiments in space.
Your satellite tracking list
Your tracking list is empty




NASA's NSSDC Master Catalog

Two Line Element Set (TLE):
1 37765U 11039A   25199.44474391  .00000311  00000-0  68829-4 0  9996
2 37765  98.3042  82.5742 0009621 223.6506 309.1917 14.63930100745111
Source of the keplerian elements: AFSPC